Regional Weather Roundup
Issued by NWS Nashville, TN

Home | Current Version | Previous Version | Text Only | Print | Product List | Glossary On
Versions: 1 2 3 4 5 6 7 8 9 10 11 12 13 14 15 16 17 18 19 20 21 22 23 24 25 26 27 28 29 30 31 32 33 34 35 36 37 38 39 40 41 42 43 44 45 46 47 48 49 50
827
ASUS44 KOHX 270010
RWROHX
MIDDLE TENNESSEE HOURLY WEATHER ROUNDUP
NATIONAL WEATHER SERVICE NASHVILLE TN
700 PM CDT MON SEP 26 2016

NOTE: "FAIR" INDICATES FEW OR NO CLOUDS BELOW 12,000 FEET WITH
NO SIGNIFICANT WEATHER AND/OR OBSTRUCTIONS TO VISIBILITY.

* THESE REPORTS ARE NOT UNDER NWS QUALITY CONTROL AND MAY NOT
  REPORT WEATHER SUCH AS PRECIPITATION AND FOG.


TNZ005>011-023>034-057-059-062>066-078-080-270100
...NORTHERN MIDDLE TENNESSEE...

CITY           SKY/WX    TMP DP  RH WIND       PRES   REMARKS
CLARKSVILLE    CLOUDY    62  54  74 N5        30.08R
CROSSVILLE     CLOUDY    71  63  75 NW6       30.08R
GALLATIN       CLEAR     64  61  88 CALM      30.10R
DICKSON        PTCLDY    62  56  81 N3        30.08R
LEBANON        MOCLDY    64  61  90 CALM      30.06S
LIVINGSTON     CLOUDY    66  62  87 N6        30.08R
NASHVILLE      MOCLDY    66  59  78 N6        30.08R
WEST NASHVILLE MOCLDY    64  61  88 CALM      30.07S
PORTLAND       CLEAR     63  57  82 CALM      30.08R
SMYRNA         CLOUDY    66  61  84 N7        30.07S
SPARTA         CLOUDY    70  66  88 N6        30.06R
$$
TNZ056-058-060-061-075>077-079-093>097-270100
...SOUTHERN MIDDLE TENNESSEE...

CITY           SKY/WX    TMP DP  RH WIND       PRES   REMARKS
COLUMBIA       CLEAR    N/A N/A N/A N3        30.05F
FAYETTEVILLE   MOCLDY    73  64  73 N6        30.03R
MCMINNVILLE    MOCLDY    72  66  83 N12       30.05S
MURFREESBORO   CLOUDY    66  61  84 N9        30.06R
SHELBYVILLE    CLOUDY    68  64  88 N12       30.07R
TULLAHOMA      CLEAR     70  63  78 N9        30.06R
WINCHESTER     PTCLDY    75  66  73 CALM      30.03S
$$


...KEY TO REMARKS...
VSB - VISIBILITY IN MILES
WCI - WIND CHILL INDEX
HX  - HEAT INDEX





USA.gov is the U.S. government's official web portal to all federal, state and local government web resources and services.